Погода в Гудермесе

Погода в Гудермесе : погода сейчас, прогноз погоды и архив. Всё, что Вы хотите узнать о погоде в Гудермесе!

Поиск расширенной информации на нашем сайте:

Другие новости

Новости СМИ2

Главная страница сайта

Новости сайта

02.10.2013

Напоминаем, что на нашем новом сайте вы можете получить высокодетализированные прогнозы погоды по пунктам России, СНГ и мира (включающие важные для авиации метеовеличины, такие как направление и скорость ветра, видимость, явления погоды, количество и форма облачности, нижняя и верхняя граница облачности), а также ознакомиться с разнообразными материалами по авиационной метеорологии и подборкой полезных ссылок на эту тему.

Сайт Метеоцентр.Азия посвящён разработке технологий оптимизации авиаметеорологического обслуживания, включая проектирование и перспективное создание нескольких автоматизированных авиаметеорологических систем:
- система выпуска высокодетальных прогностических карт явлений погоды для нижнего воздушного пространства по России и ближнему зарубежью;
- система верификации прогнозов TAF (выпускаемых синоптиками официальных АМСГ РФ и ближнего зарубежья) и AUTOTAF (выпускаемых сайтом Метеоцентр.Азия) - выявление ошибок, онлайн-сопоставление с фактической погодой METAR, автоматическое внесение коррективов в прогнозы при резком отклонении фактической погоды от прогноза, подсчёт оправдываемости прогнозов по элементам и в целом;
- система обработки, анализа и отображения авиаметеорологической информации для применения провайдерами метеорологической информации.


Погода в Гудермесе - сегодня

Время (UTC), дата Ветер
(°,м/с) 
Видим.   Явления Облачность Т
(°С)
Тd
(°С)
f(%) Тe
(°С)
Pmin
(гПа)
dP
(гПа)
Po
(мм)
O2
(г/м3)
Тmin Tmax R s Состояние
почвы
18 22.05.17 100 (В) 10 км    6/0 средняя 
[Ac lent]
+17.6 +10.8 64 +21  1009.3  750  282           
21 22.05.17 тихо ()   10 км    9/8 600 м средняя 
[Sc|Ac lent]
+15.2 +11 76 +18  1008.2  -1.1  749  284           
00 23.05.17 340 (С) 10 км    3/0 средняя 
[Ac lent]
+13.4 +10.6 83 +17  1007.8  -0.5  749  286           
03 23.05.17 260 (З) 20000 м    3/0 средняя 
[Ac cast]
+13.8 +10.9 83 +16  1009.6  1.8  750  286  +12.7        сухая 
06 23.05.17 270 (З) 20000 м    9/6 600 м кучево-дожд., средняя 
[Cb cap|Ac inh]
+13.8 +10.9 83 +16  1009.6  1.3  751  286           
09 23.05.17 210 (ЮЗ) 20000 м    9/5 600 м кучево-дожд., средняя 
[Cb cap|Ac inh]
+18.3 +12.5 69 +24  1012.3  1.5  753  282           
12 23.05.17 230 (ЮЗ) 20000 м    9/6 600 м кучево-дожд., средняя 
[Cb cap|Ac inh]
+16.8 +13.7 82 +24  1012.9  0.6  753  283           
15 23.05.17 240 (ЮЗ) 10 км    9/9 600 м кучево-дожд. 
[Cb cap]
+15.8 +13.3 85 +23  1013.4  0.4  753  284    +18.5       
18 23.05.17 290 (З) 4000 м  слаб. ливневой дождь  10/10 600 м кучево-дожд. 
[Cb cap]
+13.9 +12.4 91 +19  1015.2  1.7  755  287           
21 23.05.17 250 (З) 10 км  {ливн. осадки}  10/10 600 м кучево-дожд. 
[Cb cap]
+13.6 +12.3 92 +18  1015.3  0.1  755  287           
00 24.05.17 300 (СЗ) 10 км  {ливн. осадки}  10/10 600 м 
[Sc]
+13.5 +11.7 89 +18  1014.7  -0.6  754  287           
03 24.05.17 280 (З) 10 км    10/10 600 м кучево-дожд. 
[Cb cap]
+12.7 +11.1 90 +17  1015.2  0.4  755  288  +12.7    0.8    влажная 
06 24.05.17 270 (З) 10 км  в посл. час ливневой дождь  10/10 600 м кучево-дожд. 
[Cb cap]
+13.2 +11.9 92 +18  1014.9  -0.3  754  288  +12.5         
09 24.05.17 230 (ЮЗ) 10 км    10/10 600 м кучево-дожд. 
[Cb cap]
+14.7 +12.9 89 +20  1014.3  -0.5  754  286           
12 24.05.17 240 (ЮЗ) 4000 м  слаб. ливневой дождь  10/10 600 м кучево-дожд. 
[Cb cap]
+13.7 +12.7 94 +19  1015  0.7  755  287           
15 24.05.17 260 (З) 20000 м  в посл. час ливневой дождь  10/10 600 м кучево-дожд. 
[Cb cap]
+13.4 +12.1 92 +18  1017.2  2.1  756  288    +14.9     
18 24.05.17 250 (З) 10 км  {ливн. осадки}  10/10 600 м 
[Sc]
+13.1 +10.5 84 +15  1018.7  2.1  757  289           
21 24.05.17 240 (ЮЗ) 10 км    10/10 600 м 
[Sc]
+12.1 +9.2 82 +12  1018.9  0.2  757  291           
00 25.05.17 240 (ЮЗ) 10 км    3/0 средняя 
[Ac lent]
+10.3 +8 86 +10  1018.6  -0.4  757  293           
03 25.05.17 230 (ЮЗ) 4000 м  дымка  10/10 300 м 
[St]
+10.6 +8.8 89 +11  1019.3  0.7  758  292  +9.9        влажная 
06 25.05.17 240 (ЮЗ) 4000 м  дымка  10/10 300 м 
[St]
+12.6 +10 84 +13  1019.4  0.1  758  290           
09 25.05.17 270 (З) 20000 м    9/6 600 м средняя 
[Sc|Ac lent]
+16.5 +10 65 +18  1018.4  -0.8  757  286           
12 25.05.17 270 (З) 20000 м    9/6 600 м кучево-дожд., средняя 
[Cb cap|Ac inh]
+17.5 +10.3 63 +19  1018.5  0.1  757  285           
15 25.05.17 250 (З) 20000 м    9/4 1000 м средняя 
[Sc|Ac inh]
+17.2 +10.4 64 +20  1018.6  0.1  757  285    +18.5       
18 25.05.17 210 (ЮЗ) 10 км    9/0 средняя 
[Ac trans]
+15.3 +10.6 74 +19  1019.1  0.4  758  287           
Время (UTC), дата Ветер
(°,м/с) 
Видим.   Явления Облачность Т
(°С)
Тd
(°С)
f(%) Тe
(°С)
Pmin
(гПа)
dP
(гПа)
Po
(мм)
O2
(г/м3)
Тmin Tmax R s Состояние
почвы

Для получения пояснительной информации подведите курсор к названию столбца.

ПОГОДА в Гудермесе - архив

Всё, что Вы хотите узнать о погоде в Гудермесе - удобно и подробно!

Выберите нужную дату (начиная с 1 января 2015* года) и нажмите кнопку "Найти".
Будут отображены архивные сводки погоды по пункту Гудермес, начиная с указанной даты.


Отображать данные в формате CSV (для использования в таблицах Excel)


Внимание! Наш архив погоды предназначен исключительно для личного некоммерческого использования в познавательных целях. Если Вам необходимы официальные справки о состоянии погоды (для производственных, юридических, коммерческих и т.п. целей), обращайтесь в органы Росгидромета.

*Примечание: данная дата относится к архиву по метеостанциям СССР (Россия, СНГ, Балтия).
Архив по метеостанциям Зарубежной Европы и Азии (кроме Китая) хранится 10 дней, по другим регионам земного шара (Китай, Африка, Америка, Австралия, Океания) - 1 день.

Гудермес - район местоположения метеостанции


Название, широта, долгота, высота метеостанции:
Гудермес 43.3°ш. 46.1°д. 75 м над ур. моря [Российская Федерация]

Дополнительная информация

В oтличие oт бoльшинства пoгoдных сайтoв мы публикуем пoдрoбную метеoинфoрмацию в детальнoм прoфессиoнальнoм фoрмате.

Характеристики температуры и влажнoсти вoздуха измеряются на высoте 2 м в тени вдали oт зданий и деревьев.
Скoрoсть ветра измеряется на высoте 10 м (на урoвне рoста челoвека скoрoсть ветра ниже в 1.5-2 раза). Если метеoстанция нахoдится в гoрoде или в лесу, тo скoрoсть ветра занижена на 2-4 м/с пo сравнению с oткрытым местoм. Скoрoсть ветра над акватoриями крупных рек и oзёр, а также на вершинах хoлмoв на 2-5 м/с выше, чем в oбычных услoвиях.
Атмoсфернoе давление в разных тoчках местнoсти мoжет значительнo oтличаться oт давления на метеoстанции, в зависимoсти oт услoвий рельефа (при пoдъёме на 10 м давление пoнижается примернo на 1 мм рт.ст.).